Location: Unspecified
(38.9820°N, 94.4650°W)
Time: 04:48:39
(UTC-05:00)

CZ-3 Stage 3 - Visible Passes

Search period start: 28 May 2018 00:00
Search period end: 07 June 2018 00:00
Orbit: 420 x 34776 km, 30.9° (Epoch: 27 May)

Date Brightness Start Highest point End Pass type
(mag) Time Alt. Az. Time Alt. Az. Time Alt. Az.
28 May 6.8 02:58:42 18° SSW 05:53:32 29° SW 10:56:40 10° ESE visible
28 May 8.9 23:39:34 10° SE 06:39:49 61° SSE 07:18:30 10° E visible
30 May 9.4 00:07:44 10° ESE 02:26:34 24° ESE 03:24:09 10° E visible
31 May 6.8 02:56:38 20° SSW 05:41:33 29° SW 10:47:04 10° ESE visible
31 May 8.9 23:30:17 11° SE 06:29:33 62° SSE 07:08:52 10° E visible
01 Jun 9.4 23:52:50 10° ESE 02:16:08 24° ESE 03:14:52 10° E visible
03 Jun 6.9 02:54:05 21° SSW 05:29:32 30° SW 10:37:25 10° ESE visible
03 Jun 8.9 23:27:32 12° SE 06:19:13 63° SSE 06:59:13 10° E visible
04 Jun 9.3 23:38:01 10° ESE 02:05:37 25° ESE 03:05:31 10° E visible
06 Jun 6.9 02:50:48 23° SSW 05:17:30 31° SW 10:27:45 10° ESE visible
